カタログに戻る

SJ 16-02 DEB

運用中LEO
NORAD 43428·DEBRIS·🇨🇳 China

打ち上げ Jun 29, 2016 から Jiuquan Satellite Launch Center

Loading…

次のパス (今後24時間)

TLE

経年Source: Space-Track

元期: Sep 12, 2026, 16:23 UTC

1 43428U 16043C   26255.68318944  .00001762  00000-0  39789-3 0  9993
2 43428  74.9640 352.6230 0239923 254.2749 103.1832 14.40679796531601

AllMySatでSJ 16-02 DEBをリアルタイム追跡

Download on the App Store